When you browse on this site, cookies collect data to enhance your experience and personalize the content and advertising you see.
Visit our Privacy Policy to learn more. By continuing to use the site, you agree to this use of cookies and data.
  • In Österreich
  • Länderverzeichnis
  • Für 7 Tage
  • Wassertemperatur
  • Satellitenkarten
  • Wetterkarte
  • News
  • Widgets
  • user-avatar
    Anmelden

    Stündliche Wetter Puhovichi

    Heute, 21 Juli, Sonntag

    Zeit Temperatur Niederschläge Wind Luftdruck Luftfeuchtigkeit
    00:00 +16°C° 0.1 mm 0 m/S 751 mmHg 84%
    01:00 +15°C° 0.1 mm 0 m/S 751 mmHg 85%
    02:00 +16°C° 0 mm 1 m/S 751 mmHg 83%
    03:00 +16°C° 0 mm 1 m/S 751 mmHg 83%
    04:00 +15°C° 0 mm 0 m/S 751 mmHg 84%
    05:00 +15°C° 0 mm 0 m/S 751 mmHg 85%
    06:00 +17°C° 0 mm 0 m/S 751 mmHg 79%
    07:00 +21°C° 0 mm 1 m/S 751 mmHg 73%
    08:00 +24°C° 0 mm 1 m/S 752 mmHg 66%
    09:00 +25°C° 0 mm 1 m/S 752 mmHg 61%
    10:00 +27°C° 0 mm 1 m/S 752 mmHg 56%
    11:00 +28°C° 0 mm 1 m/S 752 mmHg 51%
    12:00 +28°C° 0.1 mm 1 m/S 751 mmHg 50%
    13:00 +29°C° 0.1 mm 1 m/S 751 mmHg 49%
    14:00 +29°C° 0.1 mm 1 m/S 751 mmHg 48%
    15:00 +29°C° 0 mm 1 m/S 751 mmHg 49%
    16:00 +29°C° 0 mm 1 m/S 751 mmHg 50%
    17:00 +28°C° 0 mm 1 m/S 751 mmHg 52%
    18:00 +26°C° 0 mm 1 m/S 750 mmHg 59%
    19:00 +25°C° 0 mm 1 m/S 750 mmHg 66%
    20:00 +23°C° 0 mm 1 m/S 750 mmHg 72%
    21:00 +22°C° 0.1 mm 1 m/S 750 mmHg 74%
    22:00 +21°C° 0.1 mm 1 m/S 750 mmHg 76%
    23:00 +20°C° 0.1 mm 2 m/S 750 mmHg 77%

    Morgen, 22 Juli, Montag

    Zeit Temperatur Niederschläge Wind Luftdruck Luftfeuchtigkeit
    00:00 +20°C° 0.1 mm 1 m/S 750 mmHg 81%
    01:00 +20°C° 0.1 mm 1 m/S 750 mmHg 85%
    02:00 +19°C° 0.1 mm 1 m/S 750 mmHg 90%
    03:00 +19°C° 0.3 mm 1 m/S 749 mmHg 91%
    04:00 +19°C° 0.3 mm 1 m/S 749 mmHg 93%
    05:00 +19°C° 0.3 mm 1 m/S 749 mmHg 94%
    06:00 +18°C° 0.2 mm 2 m/S 749 mmHg 94%
    07:00 +19°C° 0.2 mm 2 m/S 749 mmHg 94%
    08:00 +19°C° 0.2 mm 3 m/S 749 mmHg 94%
    09:00 +19°C° 1 mm 2 m/S 749 mmHg 93%
    10:00 +19°C° 1 mm 2 m/S 750 mmHg 93%
    11:00 +20°C° 1 mm 1 m/S 750 mmHg 93%
    12:00 +20°C° 0.6 mm 2 m/S 750 mmHg 88%
    13:00 +23°C° 0.6 mm 2 m/S 750 mmHg 82%
    14:00 +24°C° 0.6 mm 3 m/S 750 mmHg 77%
    15:00 +24°C° 0.7 mm 3 m/S 749 mmHg 78%
    16:00 +22°C° 0.7 mm 3 m/S 749 mmHg 80%
    17:00 +22°C° 0.7 mm 4 m/S 749 mmHg 82%
    18:00 +21°C° 0.1 mm 3 m/S 749 mmHg 85%
    19:00 +20°C° 0.1 mm 3 m/S 749 mmHg 87%
    20:00 +19°C° 0.1 mm 3 m/S 749 mmHg 90%
    21:00 +18°C° 0 mm 3 m/S 749 mmHg 92%
    22:00 +17°C° 0 mm 3 m/S 750 mmHg 93%
    23:00 +17°C° 0 mm 3 m/S 750 mmHg 95%

    übermorgen, 23 Juli, Dienstag

    Zeit Temperatur Niederschläge Wind Luftdruck Luftfeuchtigkeit
    00:00 +16°C° 0 mm 3 m/S 750 mmHg 94%
    01:00 +14°C° 0 mm 3 m/S 750 mmHg 93%
    02:00 +14°C° 0 mm 3 m/S 750 mmHg 93%
    03:00 +13°C° 0 mm 3 m/S 750 mmHg 94%
    04:00 +13°C° 0 mm 3 m/S 750 mmHg 95%
    05:00 +12°C° 0 mm 3 m/S 750 mmHg 96%
    06:00 +13°C° 0 mm 3 m/S 750 mmHg 93%
    07:00 +14°C° 0 mm 3 m/S 749 mmHg 90%
    08:00 +15°C° 0 mm 4 m/S 749 mmHg 87%
    09:00 +15°C° 0 mm 4 m/S 749 mmHg 85%
    10:00 +17°C° 0 mm 4 m/S 749 mmHg 84%
    11:00 +18°C° 0 mm 4 m/S 750 mmHg 82%
    12:00 +18°C° 0 mm 4 m/S 749 mmHg 80%
    13:00 +19°C° 0 mm 4 m/S 749 mmHg 77%
    14:00 +20°C° 0 mm 4 m/S 749 mmHg 75%
    15:00 +20°C° 0.1 mm 3 m/S 749 mmHg 75%
    16:00 +20°C° 0.1 mm 3 m/S 749 mmHg 76%
    17:00 +20°C° 0.1 mm 3 m/S 749 mmHg 76%
    18:00 +19°C° 0 mm 2 m/S 749 mmHg 82%
    19:00 +18°C° 0 mm 2 m/S 748 mmHg 88%
    20:00 +18°C° 0 mm 1 m/S 748 mmHg 94%
    21:00 +17°C° 0 mm 2 m/S 748 mmHg 95%
    22:00 +16°C° 0 mm 2 m/S 749 mmHg 96%
    23:00 +16°C° 0 mm 2 m/S 749 mmHg 97%

    24 Juli, Mittwoch

    Zeit Temperatur Niederschläge Wind Luftdruck Luftfeuchtigkeit
    00:00 +16°C° 0 mm 2 m/S 749 mmHg 97%
    01:00 +15°C° 0 mm 2 m/S 749 mmHg 97%
    02:00 +15°C° 0 mm 2 m/S 749 mmHg 97%
    03:00 +15°C° 0 mm 2 m/S 749 mmHg 97%
    04:00 +15°C° 0 mm 2 m/S 749 mmHg 97%
    05:00 +15°C° 0 mm 2 m/S 749 mmHg 97%
    06:00 +16°C° 0 mm 2 m/S 749 mmHg 91%
    07:00 +18°C° 0 mm 2 m/S 749 mmHg 86%
    08:00 +20°C° 0 mm 3 m/S 749 mmHg 80%
    09:00 +22°C° 0 mm 3 m/S 750 mmHg 73%
    10:00 +24°C° 0 mm 3 m/S 750 mmHg 66%
    11:00 +26°C° 0 mm 4 m/S 750 mmHg 58%
    12:00 +26°C° 0 mm 4 m/S 750 mmHg 56%
    13:00 +27°C° 0 mm 4 m/S 750 mmHg 54%
    14:00 +27°C° 0 mm 4 m/S 750 mmHg 52%
    15:00 +27°C° 0 mm 4 m/S 750 mmHg 54%
    16:00 +27°C° 0 mm 4 m/S 750 mmHg 56%
    17:00 +27°C° 0 mm 4 m/S 750 mmHg 59%
    18:00 +25°C° 0 mm 3 m/S 750 mmHg 66%
    19:00 +22°C° 0 mm 3 m/S 750 mmHg 73%
    20:00 +20°C° 0 mm 2 m/S 750 mmHg 81%
    21:00 +19°C° 0 mm 2 m/S 751 mmHg 84%
    22:00 +18°C° 0 mm 2 m/S 751 mmHg 87%
    23:00 +17°C° 0 mm 2 m/S 751 mmHg 89%

    25 Juli, Donnerstag

    Zeit Temperatur Niederschläge Wind Luftdruck Luftfeuchtigkeit
    00:00 +17°C° 0 mm 2 m/S 751 mmHg 90%
    01:00 +16°C° 0 mm 2 m/S 751 mmHg 90%
    02:00 +16°C° 0 mm 2 m/S 752 mmHg 91%
    03:00 +16°C° 0 mm 2 m/S 752 mmHg 91%
    04:00 +16°C° 0 mm 2 m/S 752 mmHg 91%
    05:00 +16°C° 0 mm 2 m/S 752 mmHg 92%
    06:00 +17°C° 0 mm 2 m/S 752 mmHg 85%
    07:00 +19°C° 0 mm 2 m/S 752 mmHg 78%
    08:00 +21°C° 0 mm 2 m/S 753 mmHg 71%
    09:00 +24°C° 0 mm 3 m/S 753 mmHg 64%
    10:00 +25°C° 0 mm 3 m/S 753 mmHg 57%
    11:00 +27°C° 0 mm 3 m/S 753 mmHg 50%
    12:00 +27°C° 0 mm 4 m/S 753 mmHg 49%
    13:00 +28°C° 0 mm 4 m/S 752 mmHg 48%
    14:00 +28°C° 0 mm 4 m/S 752 mmHg 48%
    15:00 +28°C° 0 mm 4 m/S 752 mmHg 50%
    16:00 +28°C° 0 mm 3 m/S 752 mmHg 53%
    17:00 +28°C° 0 mm 3 m/S 752 mmHg 56%
    18:00 +26°C° 0 mm 3 m/S 752 mmHg 63%
    19:00 +24°C° 0 mm 3 m/S 752 mmHg 71%
    20:00 +21°C° 0 mm 2 m/S 752 mmHg 78%
    21:00 +20°C° 0 mm 2 m/S 752 mmHg 79%
    22:00 +18°C° 0 mm 2 m/S 752 mmHg 81%
    23:00 +17°C° 0 mm 2 m/S 752 mmHg 82%

    26 Juli, Freitag

    Zeit Temperatur Niederschläge Wind Luftdruck Luftfeuchtigkeit
    00:00 +17°C° 0 mm 2 m/S 752 mmHg 84%
    01:00 +17°C° 0 mm 2 m/S 752 mmHg 85%
    02:00 +16°C° 0 mm 2 m/S 752 mmHg 86%
    03:00 +16°C° 0 mm 2 m/S 752 mmHg 88%
    04:00 +16°C° 0 mm 2 m/S 752 mmHg 90%
    05:00 +16°C° 0 mm 2 m/S 752 mmHg 92%
    06:00 +18°C° 0 mm 2 m/S 752 mmHg 86%
    07:00 +20°C° 0 mm 3 m/S 752 mmHg 80%
    08:00 +22°C° 0 mm 3 m/S 752 mmHg 74%
    09:00 +24°C° 0 mm 3 m/S 752 mmHg 66%
    10:00 +26°C° 0 mm 3 m/S 752 mmHg 59%
    11:00 +27°C° 0 mm 3 m/S 752 mmHg 51%
    12:00 +28°C° 0 mm 3 m/S 752 mmHg 50%
    13:00 +28°C° 0 mm 3 m/S 752 mmHg 49%
    14:00 +29°C° 0 mm 3 m/S 751 mmHg 49%
    15:00 +28°C° 0 mm 3 m/S 751 mmHg 51%
    16:00 +28°C° 0 mm 3 m/S 751 mmHg 54%
    17:00 +28°C° 0 mm 3 m/S 751 mmHg 57%
    18:00 +26°C° 0 mm 2 m/S 751 mmHg 66%
    19:00 +24°C° 0 mm 2 m/S 751 mmHg 74%
    20:00 +21°C° 0 mm 2 m/S 751 mmHg 83%
    21:00 +21°C° 0 mm 2 m/S 751 mmHg 85%
    22:00 +20°C° 0 mm 2 m/S 751 mmHg 87%
    23:00 +19°C° 0 mm 2 m/S 751 mmHg 90%
    Mehr zeigen